Regional Weather Roundup
Issued by NWS

Home | Current Version | Previous Version | Graphics & Text | Print | Product List | Glossary On
Versions: 1 2 3 4 5 6 7 8 9 10 11 12 13 14 15 16 17 18 19 20 21 22 23 24 25 26 27 28 29 30 31 32 33 34 35 36 37 38 39 40 41 42 43 44 45 46 47 48 49 50
000
ASUS43 KMPX 210301
RWRMN
WEATHER ROUNDUP FOR MINNESOTA
NATIONAL WEATHER SERVICE TWIN CITIES/CHANHASSEN MN
1000 PM CDT SUN APR 20 2014


NOTE: "FAIR" INDICATES FEW OR NO CLOUDS BELOW 12,000 FEET WITH NO
SIGNIFICANT WEATHER AND/OR OBSTRUCTIONS TO VISIBILITY. N/A MEANS
CURRENT SKY AND/OR WEATHER CONDITIONS ARE NOT AVAILABLE.

MNZ060>063-068>070-210400-
   Twin Cities Metro

CITY           SKY/WX    TMP DP  RH WIND       PRES   REMARKS
TWIN CITIES    MOCLDY    64  53  67 NE6       29.94F
ST PAUL        CLOUDY    60  52  74 CALM      29.95S
CRYSTAL        MOCLDY    65  33  30 NE6       29.94S
BLAINE         PTCLDY    63  34  34 NE3       29.95F
EDEN PRAIRIE   PTCLDY    64  53  67 E3        29.93S
LAKEVILLE      MOCLDY    55  54  94 CALM      29.95S
SOUTH ST PAUL  PTCLDY    64  54  69 CALM      29.95S
LAKE ELMO      CLOUDY    59  54  82 CALM      29.96F
$$
MNZ001>005-007-008-013>017-022>024-027-028-210400-
   Northwest Minnesota

CITY           SKY/WX    TMP DP  RH WIND       PRES   REMARKS
BEMIDJI        MOCLDY    53  31  43 SE5       29.91S
HALLOCK        CLOUDY    59  43  55 W13G23    29.84R
ROSEAU         PTCLDY    50  39  66 SE9       29.82F
WARROAD        PTCLDY    45  37  76 E9        29.85F
THIEF RVR FALL MOCLDY    59  36  41 SE12      29.84F
CROOKSTON      PTCLDY    61  37  41 S13         N/A
FOSSTON        MOCLDY    55  28  35 SE8       29.88F
DETROIT LAKES  MOCLDY    55  32  41 S6        29.92F
MOORHEAD       MOCLDY    59  39  47 SE9       29.88F
PARK RAPIDS    MOCLDY    53  29  39 S5        29.92S
$$
MNZ006-009>011-018-025>026-210400-
   North Central Minnesota

CITY           SKY/WX    TMP DP  RH WIND       PRES   REMARKS
BAUDETTE       CLOUDY    49  36  61 SE7       29.88F
FLAG ISLAND    PTCLDY    48  34  57 E10       29.85F
INTL FALLS     PTCLDY    42  33  70 E8        29.92F
WASKISH        CLOUDY    43  36  75 E3        29.90F
BIG FORK       PTCLDY    45  30  57 CALM      29.94S
LONGVILLE      PTCLDY    43  30  61 CALM      29.94S
GRAND RAPIDS   CLEAR     46  30  53 SE5       29.95S
CRANE LAKE     PTCLDY    32  23  69 CALM      29.97F
ORR            PTCLDY    50  28  43 E3        29.92F
COOK           PTCLDY    39  28  65 CALM      29.95F
$$
MNZ012-019>021-037-210400-
   Northeast Minnesota

CITY           SKY/WX    TMP DP  RH WIND       PRES   REMARKS
DULUTH         CLEAR     50  29  44 E5        29.97F
ELY            CLEAR     37  30  75 CALM      29.97F
HIBBING        CLEAR     40  31  70 CALM      29.95S
EVELETH        CLEAR     37  30  75 CALM      29.97F
DULUTH HARBOR  CLEAR     36  32  87 CALM      29.99S
TWO HARBORS    CLEAR     36  28  75 CALM      29.97S
SILVER BAY     CLEAR     36  32  87 CALM      29.97F
GRAND MARAIS     N/A     36  31  82 CALM      29.99F
G MARAIS ARPRT CLEAR    N/A N/A N/A CALM      30.00F
$$
MNZ029>031-032-039>041-046>048-054>057-064-210400-
   West Central Minnesota

CITY           SKY/WX    TMP DP  RH WIND       PRES   REMARKS
FERGUS FALLS   PTCLDY    61  30  31 SE9       29.88S
WHEATON        PTCLDY    59  39  47 SE9       29.92S
MORRIS         MOCLDY    57  39  51 E9        29.92R
ALEXANDRIA     PTCLDY    58  37  45 SE7       29.95R
ELBOW LAKE     FAIR      60  36  40 SE7       29.92S
WADENA         MOCLDY    54  39  58 CALM      29.93S
GLENWOOD       PTCLDY    57  39  51 E5        29.95S
APPLETON       PTCLDY    61  39  44 E8        29.91S
BENSON         MOCLDY    63  36  36 SE7       29.93R
ORTONVILLE     CLEAR     61  37  41 E10       29.91S
MADISON        MOCLDY    61  45  55 E8        29.91R
WILLMAR        MOCLDY    63  39  42 NE7       29.95R HAZE
$$
MNZ033>034-036-042>043-049>051-058-059-210400-
   Central Minnesota

CITY           SKY/WX    TMP DP  RH WIND       PRES   REMARKS
ST CLOUD       CLEAR     58  36  43 E3        29.95R
SAUK CENTRE    MOCLDY    53  40  61 CALM      29.95R
PAYNESVILLE    MOCLDY    55  42  60 CALM      29.94F
AITKIN         CLEAR     46  36  66 CALM      29.94S
PINE RIVER     PTCLDY    48  36  61 CALM      29.98R
BRAINERD       CLEAR     58  30  34 SE6       29.96S
STAPLES        PTCLDY    57  30  35 CALM      29.94S
LONG PRAIRIE   FAIR      50  41  71 CALM      29.96R
LITTLE FALLS   CLEAR     54  34  47 CALM      29.96R
LITCHFIELD     CLOUDY    63  43  48 E8        29.94S
BUFFALO        MOCLDY    60  37  41 NE7       29.95F
MAPLE LAKE     PTCLDY    58  39  49 E3        29.95F
$$
MNZ037-044-045-052-053-210400-
   East Central Minnesota

CITY           SKY/WX    TMP DP  RH WIND       PRES   REMARKS
PRINCETON      CLEAR     55  36  47 CALM      29.95F
MORA           CLEAR     46  37  71 CALM      29.97F
CAMBRIDGE      CLEAR     55  37  50 CALM      29.94F
RUSH CITY      PTCLDY    51  37  58 CALM      29.96S
HINCKLEY       FAIR      48  36  61 CALM      29.96S
CLOQUET        FAIR      52  28  40 CALM      29.97F
MCGREGOR       CLEAR     48  34  57 CALM      29.95S
$$
MNZ071>073-080-081-089-090-097-098-210400-
   Southwest Minnesota

CITY           SKY/WX    TMP DP  RH WIND       PRES   REMARKS
MONTEVIDEO     CLOUDY    61  45  55 E9        29.92R
GRANITE FALLS  MOCLDY    62  42  48 E6        29.92S
CANBY          CLEAR     58  44  58 E5        29.92R
MARSHALL       PTCLDY    63  46  55 E9        29.90S
REDWOOD FALLS  PTCLDY    66  50  56 E10       29.90F
OLIVIA         MOCLDY    59  45  58 E8        29.91F
PIPESTONE      PTCLDY    63  48  59 E8        29.91R
WINDOM         CLOUDY    64  54  68 E6        29.93R
WORTHINGTON    CLOUDY    64  48  55 S8        29.93R
JACKSON        CLOUDY    64  54  68 SE7       29.92S
TRACY          PTCLDY    62  51  66 E3        29.92R
SLAYTON        MOCLDY    62  49  62 NE9       29.92R
$$
MNZ065>067-074>077-082>085-091>093-210400-
   South Central Minnesota

CITY           SKY/WX    TMP DP  RH WIND       PRES   REMARKS
MANKATO        MOCLDY    63  54  72 E9        29.93S
NEW ULM        PTCLDY    64  54  68 E7        29.92S
ST JAMES       MOCLDY    64  57  77 E6        29.92R
FAIRMONT       CLOUDY    63  54  72 SW8       29.94R
GLENCOE        PTCLDY    62  49  62 E3        29.93F
FARIBAULT      MOCLDY    64  54  68 NE3       29.95S
OWATONNA       MOCLDY    61  55  82 E8        29.95R
WASECA         MOCLDY    63  55  77 E7        29.95S
ALBERT LEA     MOCLDY    61  55  82 E9        29.93S
$$
MNZ078>079-086>088-094>096-210400-
   Southeast Minnesota

CITY           SKY/WX    TMP DP  RH WIND       PRES   REMARKS
ROCHESTER      CLOUDY    58  54  86 SE8       29.98R
RED WING       MOCLDY    57  54  88 CALM      29.94F
STANTON        MOCLDY    61  54  76 E5        29.94S
DODGE CENTER   CLOUDY    61  57  88 E8        29.97R
WINONA           N/A    N/A N/A N/A MISG        N/A
AUSTIN         MOCLDY    59  55  88 E10       29.94F
PRESTON        CLOUDY    59  55  88 SE7       29.99R
$$
ABBREVIATIONS USED IN REMARKS
   TC - TEMPERATURES IN CELSIUS
  WCI - WIND CHILL INDEX
   HX - HEAT INDEX
  VSB - VISIBILITY
$$


USA.gov is the U.S. government's official web portal to all federal, state and local government web resources and services.